"Pseudo-MPEC" for P11Y50G

Created 2024 Sep 7 6:22:13 UT using Find_Orb

Click here for an explanation of pseudo-MPECs

 
 Astrometry: 
     P11Y50G 1C2024 09 03.28494 23 01 10.40 -03 30 35.4    ~966b 21.1 GVNEOCPG96
     P11Y50G 1C2024 09 03.29065 23 01 09.22 -03 30 07.2    ~966b 21.7 GVNEOCPG96
     P11Y50G 1C2024 09 03.29635 23 01 08.12 -03 29 40.2    ~966b 20.6 GVNEOCPG96
     P11Y50G 1C2024 09 03.30206 23 01 07.02 -03 29 12.7    ~966b 20.2 GVNEOCPG96
     P11Y50G* C2024 09 05.39844122 55 05.587-00 38 20.59   ~95C7 20.94wXNEOCPF51
     P11Y50G  C2024 09 05.42518622 55 00.233-00 36 10.01   ~95C7 20.76wXNEOCPF51
     P11Y50G  C2024 09 05.43851922 54 57.561-00 35 04.70   ~95C7 20.63wXNEOCPF51
     P11Y50G  C2024 09 05.52848922 54 39.736-00 27 45.19   ~95Iq 20.19GVNEOCPF52
     P11Y50G  C2024 09 05.52914822 54 39.605-00 27 41.97   ~95Iq 20.64GVNEOCPF52
     P11Y50G |C2024 09 06.15064022 52 55.590+00 23 51.50   ~965M 20.3 GVNEOCP807
     P11Y50G |C2024 09 06.15504022 52 54.680+00 24 12.40   ~965M 20.2 GVNEOCP807
     P11Y50G |C2024 09 06.15938022 52 53.800+00 24 33.50   ~965M 20.1 GVNEOCP807
     P11Y50G pC2024 09 06.87506222 50 50.96 +01 21 16.6    ~96Lb 20.8 GVNEOCPL01
     P11Y50G pC2024 09 06.87758622 50 50.42 +01 21 27.9    ~96Lb 20.7 GVNEOCPL01
     P11Y50G pC2024 09 06.88011022 50 49.91 +01 21 40.9    ~96Lb 20.5 GVNEOCPL01
     P11Y50G 1C2024 09 06.91201 22 50 43.90 +01 24 10.2    ~96Mq 21.4 VXNEOCP033
     P11Y50G 1C2024 09 06.91326 22 50 43.63 +01 24 16.5    ~96Mq 20.9 VXNEOCP033
     P11Y50G 1C2024 09 06.91450 22 50 43.39 +01 24 22.4    ~96Mq 20.4 VXNEOCP033
     P11Y50G KC2024 09 07.17103822 49 59.74 +01 45 17.8    ~974b 20.9 GVNEOCPH21
     P11Y50G KC2024 09 07.17663122 49 58.69 +01 45 45.0    ~974b 21.1 GVNEOCPH21

Station data:
(033) Karl Schwarzschild Observatory, Tautenburg  (N50.980139 E11.711240)
   Germany.  Observer B. Stecklum. 1.34-m f/3 Schmidt + CCD.
(807) Cerro Tololo Observatory, La Serena  (S30.169133 W70.805900)  Chile.
   Observer R. Holmes. 0.61-m f/6.5 astrograph + CCD.
(F51) Pan-STARRS 1, Haleakala  (N20.707234 W156.255910)  US/Hawaii.
   Observers J. Bulger, T. Lowe, A. Schultz, M. Willman. Measurers K.
   Chambers, S. Chastel, T. de Boer, L. Denneau, J. Fairlamb, H. Flewelling,
   M. Huber, C.-C. Lin, E. Magnier, Y. Ramanjooloo, R. Wainscoat, R. Weryk.
   1.8-m Ritchey-Chrétien + CCD.
(F52) Pan-STARRS 2, Haleakala  (N20.707382 W156.255910)  US/Hawaii.
   Observers J. Bulger, T. Dukes, T. Lowe, A. Schultz, M. Willman. Measurers
   K. Chambers, S. Chastel, T. de Boer, L. Denneau, J. Fairlamb, H.
   Flewelling, M. Huber, C.-C. Lin, E. Magnier, Y. Ramanjooloo, R. Wainscoat,
   R. Weryk. 1.8-m Ritchey-Chrétien + CCD.
(G96) Mt. Lemmon Survey  (N32.442729 W110.788720)  US/Arizona.  Observer E.
   J. Christensen. 1.5-m reflector + 10K CCD.
(H21) Astronomical Research Observatory, Westfield  (N39.483054 W87.968270)
   US/Illinois.  Observer R. Holmes. Measurers S. Foglia, L. Buzzi, T.
   Linder, R. Holmes. 0.76-m f/3.0 astrograph + CCD0.81-m f/4.0 astrograph +
   CCD0.61-m f/4.5 astrograph + CCD0.40-m f/5.32 astrograph + CCD.
(L01) Višnjan Observatory, Tičan  (N45.290897 E13.749300)  Croatia.
   Observers K. Korlević, D. Pujagic, V. Dobos. Measurers D. Pujagic, K.
   Korlević. 1.0-m f/2.9 reflector + CCD.

Orbital elements:  P11Y50G
   Perihelion 2024 Sep 25.82350 +/- 0.0846 TT = 19:45:50 (JD 2460579.32350)
Epoch 2024 Sep  7.0 TT = JDT 2460560.5   Earth MOID: 0.1283      AutoNEOCP
M 347.35274409 +/- 0.07             (J2000 ecliptic)
n   0.67188661 +/- 0.00102          Peri.   20.99411 +/- 0.07
a   1.29103709 +/- 0.00131          Node   339.97118 +/- 0.0020
e   0.1248703 +/- 0.000549          Incl.   11.52069 +/- 0.037
P   1.467/535.795d         H 24.59  G  0.15   U  8.1
q 1.12982485 +/- 0.000437    Q 1.45224933 +/- 0.00218
From 20 observations 2024 Sept. 3-7; mean residual 0".37
Residuals in arcseconds: 
240903 G96  .54+  .17+    240905 F52  .07+  .14-    240906 L01  .80-  .76+    
240903 G96  .39-  .58+    240905 F52  .04+  .14-    240906 033  .49+  .39-    
240903 G96  .13-  .16-    240906 807  .66+  .55+    240906 033  .00   .16-    
240903 G96  .17+  .46-    240906 807  .03+  .02-    240906 033  .06-  .29-    
240905 F51  .04+  .10+    240906 807  .33-  .09-    240907 H21  .13-  .32-    
240905 F51  .09-  .03-    240906 L01  .51+  1.0+    240907 H21  .31+  .28-    
240905 F51  .16-  .11+    240906 L01  .37-  .03+    

Ephemerides (geocentric):
Date (UTC) HH   RA             Dec           delta  r     elong  mag " sig PA
---- --------  ------------   ------------  ------ ------ -----  --- --------
2024 09 07 06  22 49 44.800   +01 52 22.70  .12835 1.1348 171.4 21.0 .171 162
2024 09 07 07  22 49 37.626   +01 55 44.65  .12836 1.1348 171.3 21.0 .175 162
2024 09 07 08  22 49 30.454   +01 59 06.53  .12837 1.1347 171.2 21.0 .180 162
2024 09 07 09  22 49 23.283   +02 02 28.35  .12838 1.1347 171.2 21.0 .185 161
2024 09 07 10  22 49 16.114   +02 05 50.11  .12838 1.1347 171.1 21.0 .190 161
2024 09 07 11  22 49 08.947   +02 09 11.80  .12839 1.1347 171.0 21.0 .195 160
2024 09 07 12  22 49 01.782   +02 12 33.43  .12840 1.1346 171.0 21.0 .200 160
2024 09 07 13  22 48 54.618   +02 15 55.00  .12841 1.1346 170.9 21.0 .205 160
2024 09 07 14  22 48 47.457   +02 19 16.49  .12842 1.1346 170.8 21.0 .211 159
2024 09 07 15  22 48 40.297   +02 22 37.92  .12843 1.1346 170.8 21.0 .216 159
2024 09 07 16  22 48 33.139   +02 25 59.28  .12844 1.1346 170.7 21.0 .221 159
2024 09 07 17  22 48 25.983   +02 29 20.58  .12845 1.1345 170.7 21.0 .227 159
2024 09 07 18  22 48 18.830   +02 32 41.80  .12847 1.1345 170.6 21.0 .233 158
2024 09 07 19  22 48 11.678   +02 36 02.94  .12848 1.1345 170.5 21.0 .238 158
2024 09 07 20  22 48 04.528   +02 39 24.02  .12849 1.1345 170.5 21.0 .244 158
2024 09 07 21  22 47 57.381   +02 42 45.02  .12850 1.1345 170.4 21.0 .250 158
2024 09 07 22  22 47 50.235   +02 46 05.95  .12851 1.1344 170.3 21.0 .256 157
2024 09 07 23  22 47 43.092   +02 49 26.80  .12852 1.1344 170.2 21.0 .262 157
2024 09 08 00  22 47 35.951   +02 52 47.57  .12854 1.1344 170.2 21.0 .268 157
2024 09 08 01  22 47 28.813   +02 56 08.27  .12855 1.1344 170.1 21.0 .274 157
2024 09 08 02  22 47 21.676   +02 59 28.89  .12856 1.1343 170.0 21.0 .280 157
2024 09 08 03  22 47 14.542   +03 02 49.42  .12858 1.1343 170.0 21.0 .287 156
2024 09 08 04  22 47 07.411   +03 06 09.88  .12859 1.1343 169.9 21.0 .293 156
2024 09 08 05  22 47 00.281   +03 09 30.26  .12860 1.1343 169.8 21.0 .299 156
2024 09 08 06  22 46 53.155   +03 12 50.55  .12862 1.1343 169.8 21.0 .306 156
2024 09 08 07  22 46 46.030   +03 16 10.76  .12863 1.1342 169.7 21.0 .312 156
2024 09 08 08  22 46 38.909   +03 19 30.88  .12865 1.1342 169.6 21.0 .319 156
2024 09 08 09  22 46 31.789   +03 22 50.92  .12866 1.1342 169.6 21.0 .326 156
2024 09 08 10  22 46 24.673   +03 26 10.87  .12868 1.1342 169.5 21.0 .333 156
2024 09 08 11  22 46 17.559   +03 29 30.73  .12869 1.1342 169.4 21.0 .339 155
2024 09 08 12  22 46 10.447   +03 32 50.51  .12871 1.1341 169.4 21.0 .346 155
2024 09 08 13  22 46 03.339   +03 36 10.19  .12873 1.1341 169.3 21.0 .353 155
2024 09 08 14  22 45 56.233   +03 39 29.79  .12874 1.1341 169.2 21.0 .360 155
2024 09 08 15  22 45 49.130   +03 42 49.29  .12876 1.1341 169.2 21.0 .367 155
2024 09 08 16  22 45 42.029   +03 46 08.70  .12878 1.1341 169.1 21.0 .375 155
2024 09 08 17  22 45 34.932   +03 49 28.02  .12879 1.1340 169.0 21.0 .382 155
2024 09 08 18  22 45 27.837   +03 52 47.24  .12881 1.1340 168.9 21.1 .389 155
2024 09 08 19  22 45 20.745   +03 56 06.36  .12883 1.1340 168.9 21.1 .396 155
2024 09 08 20  22 45 13.656   +03 59 25.39  .12884 1.1340 168.8 21.1 .404 155
2024 09 08 21  22 45 06.571   +04 02 44.33  .12886 1.1340 168.7 21.1 .411 155
2024 09 08 22  22 44 59.488   +04 06 03.16  .12888 1.1339 168.7 21.1 .419 155
2024 09 08 23  22 44 52.408   +04 09 21.90  .12890 1.1339 168.6 21.1 .426 155
2024 09 09 00  22 44 45.331   +04 12 40.53  .12892 1.1339 168.5 21.1 .434 154
2024 09 09 01  22 44 38.258   +04 15 59.06  .12894 1.1339 168.5 21.1 .442 154
2024 09 09 02  22 44 31.187   +04 19 17.49  .12896 1.1339 168.4 21.1 .450 154
2024 09 09 03  22 44 24.120   +04 22 35.82  .12898 1.1338 168.3 21.1 .457 154
2024 09 09 04  22 44 17.056   +04 25 54.05  .12900 1.1338 168.2 21.1 .465 154
2024 09 09 05  22 44 09.995   +04 29 12.17  .12902 1.1338 168.2 21.1 .473 154